Погода в Павелеце

Погода в Павелеце : погода сейчас, прогноз погоды и архив. Всё, что Вы хотите узнать о погоде в Павелеце!

Поиск расширенной информации на нашем сайте:

Другие новости

Новости СМИ2

Главная страница сайта

Новости сайта

03.07.2017

Напоминаем, что на нашем специализированном сайте Метеоцентр.Азия вы можете получить высокодетализированные автоматические прогнозы погоды по пунктам России, СНГ и мира в авиационном формате (включающие направление и скорость ветра, видимость, явления погоды, количество и форму облачности, нижнюю и верхнюю границу облачности).

Рекомендуем: DONIC level 800 Waldner готовая ракетка

Погода в Павелеце - сегодня

Время (UTC), дата Ветер
(°,м/с) 
Видим.   Явления Облачность Т
(°С)
Тd
(°С)
f(%) Тe
(°С)
Pmin
(гПа)
dP
(гПа)
Po
(мм)
O2
(г/м3)
Тmin Tmax R s Состояние
почвы
06 15.08.17 010 (С) 20000 м    10/3 600 м кучево-дожд., средняя, верхняя 
[Cb calv|Ac trans|Ci fib]
+20.5 +16.7 79 +32  1020.6  1.1  747  276           
09 15.08.17 020 (С) 20000 м    6/4 600 м верхняя 
[Cu hum|Ci fib]
+23.6 +15.5 60 +33  1021.3  0.9  748  274           
12 15.08.17 010 (С) 20000 м    8/4 600 м кучево-дожд., верхняя 
[Cb calv|Ci fib]
+24.2 +14.8 56 +33  1021.8  0.5  748  274           
15 15.08.17 030 (СВ) 20000 м    8/4 600 м кучево-дожд., верхняя 
[Cb calv|Ci fib]
+22.4 +14.4 61 +30  1022.4  0.5  749  276    +24.6       
18 15.08.17 020 (С) 20000 м    8/3 600 м верхняя 
[Cu med, cong|Ci fib]
+19.1 +13.3 69 +26  1024.1  1.3  750  280           
21 15.08.17 030 (СВ) 20000 м    4/0 верхняя 
[Ci fib]
+16.3 +12.7 79 +22  1025  0.7  750  283           
00 16.08.17 030 (СВ) 20000 м    4/0 верхняя 
[Ci fib]
+15 +12.3 84 +20  1025.6  0.4  750  284           
03 16.08.17 020 (С) 20000 м    3/0 верхняя 
[Ci fib]
+14.1 +12 87 +19  1026.1  0.4  751  285  +13.9        сухая 
06 16.08.17 040 (СВ) 20000 м    ясно 
+19.4 +14.1 71 +27  1026.1  0.5  751  280           
09 16.08.17 020 (С) 20000 м    8/8 600 м 
[Cu hum]
+23.6 +13.5 53 +30  1025.4  -0.4  751  276           
12 16.08.17 080 (В) 20000 м    8/8 600 м 
[Cu hum]
+23.9 +11.4 45 +27  1025.1  -0.3  751  276           
15 16.08.17 080 (В) 20000 м    4/4 600 м 
[Cu hum]
+23.6 +13 51 +29  1024.8  -0.3  750  276    +25.1       
18 16.08.17 070 (В) 20000 м    4/0 верхняя 
[Ci fib]
+19.1 +14 72 +28  1025.5  0.3  751  280           
21 16.08.17 040 (СВ) 20000 м    ясно 
+16.3 +13.4 83 +23  1026.1  0.4  751  283           
00 17.08.17 050 (СВ) 20000 м    6/0 верхняя 
[Ci fib]
+15.3 +13.5 89 +22  1026.2  751  284           
03 17.08.17 040 (СВ) 20000 м    4/0 средняя 
[Ac trans]
+14.2 +13 92 +20  1026.7  0.4  751  285  +14        сухая 
06 17.08.17 080 (В) 20000 м    ясно 
+19.7 +15.1 75 +30  1026.2  751  279           
09 17.08.17 080 (В) 20000 м    4/3 600 м верхняя 
[Cu hum|Ci fib]
+24.3 +14.9 56 +33  1025.6  -0.3  751  275           
12 17.08.17 050 (СВ) 20000 м    8/5 600 м верхняя 
[Cu hum|Ci fib]
+26.6 +12.2 41 +31  1024.6  -0.8  750  273           
15 17.08.17 070 (В) 20000 м    4/3 600 м верхняя 
[Cu hum|Ci fib]
+24.5 +13.2 49 +30  1024.2  -0.5  750  275    +26.6       
18 17.08.17 090 (В) 20000 м    ясно 
+20.1 +12.6 62 +25  1025  0.4  750  279           
21 17.08.17 090 (В) 20000 м    ясно 
+17.2 +12.1 72 +23  1025.4  0.2  751  282           
00 18.08.17 140 (ЮВ) 20000 м    ясно 
+16 +10.7 71 +19  1025.6  751  284           
03 18.08.17 060 (СВ) 20000 м    3/3 600 м 
[Cu hum]
+15.3 +10.6 74 +19  1026  0.3  751  285  +13.4        сухая 
06 18.08.17 110 (В) 20000 м    4/0 верхняя 
[Ci fib]
+23 +11.2 47 +26  1025.4  751  277           
Время (UTC), дата Ветер
(°,м/с) 
Видим.   Явления Облачность Т
(°С)
Тd
(°С)
f(%) Тe
(°С)
Pmin
(гПа)
dP
(гПа)
Po
(мм)
O2
(г/м3)
Тmin Tmax R s Состояние
почвы

Для получения пояснительной информации подведите курсор к названию столбца.

ПОГОДА в Павелеце - архив

Всё, что Вы хотите узнать о погоде в Павелеце - удобно и подробно!

Выберите нужную дату (начиная с 1 января 2015* года) и нажмите кнопку "Найти".
Будут отображены архивные сводки погоды по пункту Павелец, начиная с указанной даты.


Отображать данные в формате CSV (для использования в таблицах Excel)


Внимание! Наш архив погоды предназначен исключительно для личного некоммерческого использования в познавательных целях. Если Вам необходимы официальные справки о состоянии погоды (для производственных, юридических, коммерческих и т.п. целей), обращайтесь в органы Росгидромета.

*Примечание: данная дата относится к архиву по метеостанциям СССР (Россия, СНГ, Балтия).
Архив по метеостанциям Зарубежной Европы и Азии (кроме Китая) хранится 10 дней, по другим регионам земного шара (Китай, Африка, Америка, Австралия, Океания) - 1 день.

Павелец - район местоположения метеостанции


Название, широта, долгота, высота метеостанции:
Павелец 53.8°ш. 39.2°д. 209 м над ур. моря [Российская Федерация]

Дополнительная информация

В oтличие oт бoльшинства пoгoдных сайтoв мы публикуем пoдрoбную метеoинфoрмацию в детальнoм прoфессиoнальнoм фoрмате.

Характеристики температуры и влажнoсти вoздуха измеряются на высoте 2 м в тени вдали oт зданий и деревьев.
Скoрoсть ветра измеряется на высoте 10 м (на урoвне рoста челoвека скoрoсть ветра ниже в 1.5-2 раза). Если метеoстанция нахoдится в гoрoде или в лесу, тo скoрoсть ветра занижена на 2-4 м/с пo сравнению с oткрытым местoм. Скoрoсть ветра над акватoриями крупных рек и oзёр, а также на вершинах хoлмoв на 2-5 м/с выше, чем в oбычных услoвиях.
Атмoсфернoе давление в разных тoчках местнoсти мoжет значительнo oтличаться oт давления на метеoстанции, в зависимoсти oт услoвий рельефа (при пoдъёме на 10 м давление пoнижается примернo на 1 мм рт.ст.).